[[{"header":{"parameterUnit":"m.s-1","parameterCategory":1,"la1":30.2991,"la2":30.254,"lo1":-89.0895,"lo2":-89.0444,"dy":0.0017,"dx":0.0017,"nx":28,"ny":28,"refTime":"2023-03-21T21:00:00:Z","depth":0,"parameterNumber":2,"parameterNumberName":"U-component_of_WINDS"},"data":[0,0,0,0,0,0,0,0,0,0,0,0,0,0,0,0,0,0,0,0,0,0,0,0,0,0,0,0,0,0,0,0,0,0,0,0,0,0,0,0,0,0,0,0,0,0,0,0,0,0,0,0,0,0,0,0,0,0,-5.9118,-5.9119,0,-5.9202,-5.9203,-5.9203,-5.9171,-5.9169,-5.9168,-5.9166,-5.9243,-5.9247,-5.9251,0,0,0,0,0,0,0,0,0,0,0,0,0,-5.8926,-5.8929,-5.9118,-5.9119,-5.912,-5.9201,-5.9203,-5.9204,-5.9172,-5.9169,-5.9167,-5.9165,-5.9242,-5.9247,-5.9251,0,0,0,0,0,0,0,0,0,0,0,0,0,-5.9009,-5.8931,-5.9118,-5.9114,-5.9115,-5.9201,-5.9203,-5.9204,-5.9172,-5.9169,-5.9166,-5.9164,-5.9241,-5.9246,-5.9252,-5.9345,0,0,-5.927,-5.9272,0,0,0,0,0,0,0,0,-5.9004,-5.9016,-5.9114,-5.9115,-5.9115,-5.9173,-5.9163,-5.9251,-5.9173,-5.915,-5.9166,-5.9162,-5.9222,-5.9229,-5.9251,-5.9348,-5.9352,-5.927,-5.9274,-5.9276,-5.9278,0,0,0,0,0,0,0,-5.8999,-5.9012,-5.9151,-5.9115,-5.9116,-5.9107,-5.9115,-5.918,-5.9201,-5.9152,-5.915,-5.9161,-5.9222,-5.9245,-5.9252,-5.9353,-5.927,-5.9275,-5.9279,-5.9281,-5.9532,-5.9535,0,0,0,0,0,0,-5.8994,-5.9008,-5.9148,-5.9153,-5.9052,-5.9113,-5.9122,-5.9157,-5.92,-5.9204,-5.9163,-5.9159,-5.9237,-5.9246,-5.9255,-5.9366,-5.9276,-5.9281,-5.9285,-5.9529,-5.9533,-5.9536,0,0,0,0,0,0,-5.899,-5.9006,-5.9145,-5.908,-5.9097,-5.9119,-5.9159,-5.9161,-5.9184,-5.9208,-5.9211,-5.9183,-5.9235,-5.9247,-5.9323,-5.9368,-5.9284,-5.9289,-5.9525,-5.953,-5.9535,-5.9588,0,0,0,0,0,0,-5.8984,-5.9005,-5.9041,-5.9081,-5.9101,-5.9213,-5.9162,-5.9164,-5.9195,-5.919,-5.9228,-5.9232,-5.9234,-5.9315,-5.9329,-5.9374,-5.9294,-5.9521,-5.9527,-5.9533,-5.9583,-5.9595,-5.9605,0,0,0,0,0,-5.8977,-5.9051,-5.9043,-5.906,-5.9147,-5.9216,-5.9227,-5.9229,-5.9199,-5.9234,-5.9251,-5.923,-5.9362,-5.9323,-5.9339,-5.9386,-5.9518,-5.9526,-5.9533,-5.9578,-5.9592,-5.9604,0,0,0,0,0,0,-5.9011,-5.9056,-5.9047,-5.9137,-5.9173,-5.921,-5.9255,-5.9245,-5.9288,-5.9281,-5.9281,-5.929,-5.9369,-5.9386,-5.9342,-5.9479,-5.9435,-5.9446,-5.9464,-5.9478,-5.9489,-5.9481,-5.9299,0,0,0,0,0,-5.903,-5.9084,-5.912,-5.9195,-5.9214,-5.9232,-5.9262,-5.9262,-5.9299,-5.9313,-5.9334,-5.9369,-5.9418,-5.945,-5.9496,-5.9587,-5.9594,-5.9628,-5.9639,-5.9648,-5.9655,-5.9705,-5.972,-5.956,-5.956,-5.956,0,0,-5.9066,-5.9098,-5.9131,-5.9203,-5.9231,-5.9286,-5.9245,-5.9304,-5.9344,-5.9321,-5.9394,-5.9413,-5.9451,-5.9536,-5.9574,-5.9552,-5.9703,-5.9657,-5.9664,-5.9667,-5.9714,-5.9729,-5.9742,-5.9565,-5.9564,-5.9563,0,0,-5.9161,-5.9192,-5.9258,-5.9289,-5.9334,-5.9346,-5.9363,-5.9403,-5.9415,-5.9491,-5.9475,-5.9523,-5.9607,-5.9636,-5.9661,-5.9774,-5.9756,-5.9789,-5.9844,-5.9892,-5.9905,-5.9916,-5.9954,-5.9968,-5.9798,-5.9798,-5.9798,0,-5.92,-5.9284,-5.9292,-5.9354,-5.9386,-5.9373,-5.9439,-5.9468,-5.9525,-5.9546,-5.9523,-5.9631,-5.9656,-5.9746,-5.9775,-5.9797,-5.9814,-5.9782,-5.9903,-5.9914,-5.9924,-5.996,-5.9975,-5.9801,-5.9801,-5.9801,-5.98,0,-5.9329,-5.9389,-5.9436,-5.9496,-5.9533,-5.9597,-5.9613,-5.9651,-5.9649,-5.9664,-5.9741,-5.9773,-5.9825,-5.9848,-5.9846,-5.994,-5.9925,-5.9903,-5.9857,-5.9943,-5.9977,-5.9991,-5.9806,-5.9805,-5.9804,-5.9803,0,0,-5.944,-5.9509,-5.9525,-5.9553,-5.9605,-5.9649,-5.9714,-5.9769,-5.98,-5.9842,-5.9894,-5.9969,-5.995,-5.9979,-5.9981,-6.0024,-6.011,-5.9996,-5.9997,-6.0014,-6.0213,-6.0226,-6.0242,-6.0101,-6.0104,-6.0106,-6.0209,0,-5.9537,-5.9651,-5.9663,-5.9764,-5.9818,-5.9811,-5.9866,-5.9903,-5.9921,-5.9968,-5.9986,-6.0039,-6.0011,-6.0029,-6.0072,-6.009,-6.0149,-6.0083,-6.0146,-6.0148,-6.0132,-6.026,-6.0274,-6.0369,-6.0222,-6.0225,-6.0226,0,-5.9662,-5.9712,-5.982,-5.9867,-5.989,-5.994,-5.9993,-6.004,-6.0082,-6.0092,-6.0128,-6.0125,-6.019,-6.0148,-6.0236,-6.0191,-6.0219,-6.0233,-6.0237,-6.0238,-6.0188,-6.0261,-6.0399,-6.0412,-6.0248,-6.0246,-6.0244,0,-5.9729,-5.9823,-5.99,-5.9924,-5.9982,-6.0017,-6.0042,-6.0083,-6.0117,-6.0163,-6.0185,-6.0238,-6.0265,-6.0306,-6.0317,-6.0286,-6.0405,-6.0363,-6.0412,-6.0412,-6.0432,-6.043,-6.0572,-6.0458,-6.0458,-6.0458,-6.0457,0,-5.9833,-5.9898,-5.9931,-5.9977,-6.0051,-6.0066,-6.0137,-6.0161,-6.0198,-6.0248,-6.0245,-6.0291,-6.0306,-6.0355,-6.0365,-6.0436,-6.0449,-6.0457,-6.0457,-6.0454,-6.0453,-6.0468,-6.046,-6.0461,-6.046,-6.046,-6.0459,0,-5.9916,-5.9942,-6.0025,-6.0075,-6.009,-6.0141,-6.0183,-6.0228,-6.0247,-6.0311,-6.0326,-6.0356,-6.0414,-6.0431,-6.05,-6.0506,-6.0589,-6.0586,-6.0575,-6.0573,-6.062,-6.0614,-6.0773,-6.0794,-6.067,-6.0671,-6.0672,0,-5.9978,-6.0029,-6.0087,-6.0122,-6.015,-6.0206,-6.0242,-6.026,-6.0297,-6.0353,-6.039,-6.0449,-6.0496,-6.0589,-6.0614,-6.0668,-6.0663,-6.0716,-6.067,-6.0666,-6.066,-6.0655,-6.066,-6.0722,-6.0723,-6.0725,-6.0725,0,-6.0085,-6.0096,-6.0149,-6.0209,-6.0253,-6.0299,-6.0343,-6.0372,-6.0396,-6.0438,-6.05,-6.0537,-6.061,-6.0667,-6.0723,-6.0746,-6.0739,-6.0741,-6.0754,-6.0749,-6.0739,-6.0742,-6.0593,-6.0735,-6.0734,-6.0734,-6.0733,-6.0733,-6.0157,-6.0202,-6.0251,-6.0311,-6.0348,-6.0391,-6.0436,-6.0464,-6.0517,-6.0579,-6.0587,-6.0653,-6.0697,-6.0771,-6.0799,-6.0849,-6.0833,-6.0853,-6.0858,-6.0861,-6.0864,-6.0736,-6.086,-6.0859,-6.0859,-6.0859,-6.0859,0,-6.026,-6.0293,-6.0349,-6.0414,-6.0462,-6.0458,-6.0508,-6.0547,-6.0606,-6.065,-6.0698,-6.0769,-6.0826,-6.086,-6.0916,-6.095,-6.0949,-6.0964,-6.0959,-6.0965,-6.0876,-6.0857,-6.0965,-6.0965,-6.0965,-6.0965,-6.0965,-6.0965,-6.0319,-6.0396,-6.0414,-6.051,-6.0541,-6.0608,-6.0638,-6.0677,-6.0712,-6.0793,-6.0842,-6.0865,-6.0904,-6.0965,-6.1017,-6.1025,-6.1044,-6.1061,-6.1067,-6.0982,-6.0971,-6.096,-6.0942,-6.1066,-6.1066,-6.1151,-6.1152,-6.1153]},{"header":{"parameterUnit":"m.s-1","parameterCategory":1,"la1":30.2991,"la2":30.254,"lo1":-89.0895,"lo2":-89.0444,"dy":0.0017,"dx":0.0017,"nx":28,"ny":28,"refTime":"2023-03-21T21:00:00:Z","depth":0,"parameterNumber":3,"parameterNumberName":"V-component_of_WINDS"},"data":[0,0,0,0,0,0,0,0,0,0,0,0,0,0,0,0,0,0,0,0,0,0,0,0,0,0,0,0,0,0,0,0,0,0,0,0,0,0,0,0,0,0,0,0,0,0,0,0,0,0,0,0,0,0,0,0,0,0,4.6027,4.6025,0,4.5835,4.5833,4.5831,4.5712,4.5712,4.5711,4.571,4.5509,4.5504,4.5499,0,0,0,0,0,0,0,0,0,0,0,0,0,4.6289,4.6285,4.6027,4.6025,4.6023,4.5835,4.5833,4.583,4.5712,4.5712,4.5711,4.571,4.551,4.5505,4.5499,0,0,0,0,0,0,0,0,0,0,0,0,0,4.6144,4.6283,4.6028,4.5941,4.5932,4.5836,4.5833,4.5829,4.5712,4.5712,4.5711,4.571,4.5512,4.5505,4.5498,4.5472,0,0,4.5476,4.5473,0,0,0,0,0,0,0,0,4.6152,4.6134,4.5956,4.5947,4.5936,4.5797,4.5851,4.5709,4.5713,4.5796,4.571,4.5709,4.5605,4.559,4.5556,4.5462,4.5454,4.5476,4.5471,4.5468,4.5466,0,0,0,0,0,0,0,4.6162,4.6142,4.5951,4.5954,4.5942,4.5911,4.5889,4.5823,4.5708,4.5788,4.5779,4.5758,4.5599,4.5563,4.555,4.5451,4.5476,4.5469,4.5465,4.5462,4.5327,4.5328,0,0,0,0,0,0,4.6187,4.6151,4.5957,4.5945,4.6044,4.5907,4.5883,4.5842,4.5708,4.5687,4.5759,4.5754,4.5576,4.5559,4.5543,4.5505,4.5468,4.5461,4.5457,4.5327,4.5328,4.5328,0,0,0,0,0,0,4.6193,4.6171,4.5965,4.6046,4.6017,4.5904,4.5859,4.5839,4.5803,4.5686,4.5665,4.5744,4.5575,4.5553,4.5491,4.5496,4.5458,4.5452,4.5326,4.5327,4.5328,4.5428,0,0,0,0,0,0,4.6201,4.6173,4.6163,4.6046,4.6013,4.5918,4.5859,4.5836,4.5791,4.5782,4.5666,4.5646,4.5572,4.5503,4.5484,4.5485,4.5446,4.5325,4.5326,4.5328,4.5424,4.5432,4.544,0,0,0,0,0,4.6211,4.6197,4.6163,4.614,4.5998,4.5918,4.5899,4.5816,4.5792,4.5781,4.5706,4.565,4.5498,4.5497,4.5475,4.5475,4.5324,4.5326,4.5327,4.542,4.543,4.5439,0,0,0,0,0,0,4.6316,4.618,4.6141,4.609,4.6017,4.5899,4.5881,4.583,4.576,4.5754,4.5652,4.5627,4.5576,4.5518,4.552,4.5443,4.5405,4.5402,4.5483,4.5492,4.5499,4.5515,4.544,0,0,0,0,0,4.6334,4.6281,4.6165,4.6131,4.6097,4.5996,4.5958,4.59,4.582,4.5788,4.5708,4.5631,4.5566,4.5525,4.5459,4.5414,4.5388,4.5403,4.5411,4.5418,4.5417,4.5391,4.5397,4.5334,4.5334,4.5334,0,0,4.6369,4.6288,4.6261,4.615,4.6087,4.6035,4.597,4.5917,4.5877,4.5779,4.5717,4.5656,4.5563,4.551,4.5483,4.5461,4.5429,4.542,4.5427,4.5422,4.5394,4.54,4.5405,4.5335,4.5335,4.5335,0,0,4.6407,4.634,4.6306,4.6244,4.615,4.6083,4.6075,4.5964,4.5921,4.5857,4.5783,4.5733,4.5623,4.556,4.5514,4.553,4.5476,4.5511,4.5553,4.5529,4.5534,4.5538,4.5545,4.5549,4.551,4.551,4.551,0,4.6462,4.6382,4.6294,4.6246,4.62,4.611,4.6075,4.6018,4.5906,4.5876,4.5853,4.5715,4.5645,4.5578,4.5582,4.5547,4.5535,4.5524,4.554,4.5543,4.5546,4.5552,4.5554,4.5515,4.5515,4.5514,4.5514,0,4.6455,4.6401,4.6384,4.6281,4.6232,4.619,4.6096,4.6057,4.6004,4.594,4.5876,4.579,4.5706,4.5685,4.5631,4.561,4.56,4.556,4.552,4.5558,4.5562,4.5564,4.5522,4.5521,4.5519,4.5518,0,0,4.6555,4.6405,4.64,4.6353,4.6243,4.6198,4.6152,4.6072,4.6041,4.5966,4.5926,4.5836,4.5799,4.5746,4.5685,4.5663,4.5684,4.5626,4.5622,4.5641,4.5657,4.5689,4.5693,4.5647,4.5647,4.5647,4.5665,0,4.6578,4.6493,4.6414,4.6357,4.6306,4.6221,4.618,4.6108,4.6047,4.5993,4.5924,4.5863,4.5818,4.5786,4.5761,4.5687,4.5686,4.5684,4.5608,4.5607,4.5637,4.5695,4.5728,4.575,4.5666,4.5666,4.5666,0,4.6594,4.6526,4.6466,4.6362,4.6337,4.6303,4.6224,4.6174,4.609,4.6046,4.5989,4.5925,4.5872,4.5837,4.5763,4.5764,4.5728,4.5687,4.5685,4.5676,4.5641,4.569,4.5755,4.5759,4.5667,4.5667,4.5667,0,4.6675,4.6568,4.6519,4.6481,4.6357,4.6336,4.6283,4.6198,4.6156,4.6085,4.6057,4.598,4.5939,4.5881,4.5798,4.578,4.5733,4.5691,4.5696,4.5699,4.5691,4.5693,4.5754,4.5666,4.5665,4.5665,4.5665,0,4.6711,4.6678,4.6554,4.6524,4.6484,4.6392,4.6355,4.6294,4.622,4.6176,4.6096,4.6056,4.5948,4.5895,4.5829,4.5779,4.5759,4.5723,4.5707,4.5732,4.5737,4.5708,4.5705,4.5666,4.5666,4.5666,4.5666,0,4.6796,4.6712,4.6652,4.6541,4.6513,4.6489,4.6393,4.636,4.6294,4.624,4.6221,4.6118,4.6051,4.5962,4.5867,4.5823,4.5782,4.5754,4.5812,4.5802,4.5813,4.5814,4.5859,4.5861,4.577,4.5771,4.5772,0,4.6825,4.6798,4.6685,4.6651,4.6602,4.6547,4.6503,4.6411,4.6369,4.6272,4.6251,4.6179,4.6117,4.6015,4.593,4.5858,4.5829,4.5849,4.5817,4.5844,4.5832,4.5835,4.5833,4.5858,4.586,4.5861,4.5862,0,4.6887,4.6847,4.6789,4.6716,4.6667,4.6604,4.6538,4.6514,4.6408,4.6364,4.6297,4.6249,4.6153,4.6083,4.5999,4.5943,4.5886,4.5872,4.587,4.5897,4.5932,4.5915,4.5835,4.5872,4.5871,4.587,4.587,4.5869,4.6946,4.6919,4.6836,4.6774,4.6714,4.6655,4.6619,4.655,4.6492,4.6409,4.6357,4.6292,4.6209,4.6091,4.6038,4.5986,4.5963,4.5959,4.5958,4.5959,4.5969,4.5939,4.597,4.5969,4.5969,4.5968,4.5968,0,4.7006,4.6949,4.6892,4.6804,4.6755,4.6705,4.6629,4.6591,4.6536,4.6464,4.6405,4.6328,4.6259,4.617,4.6095,4.6071,4.6042,4.6054,4.6056,4.6045,4.5992,4.6003,4.6079,4.6079,4.6079,4.6079,4.6079,4.6079,4.7032,4.6984,4.6935,4.6856,4.6798,4.6735,4.6697,4.6641,4.6584,4.6502,4.6446,4.6388,4.6309,4.6228,4.6164,4.6139,4.6116,4.6137,4.6105,4.6058,4.6048,4.6039,4.6048,4.6132,4.6132,4.6161,4.6161,4.6162]}]]